contact:dominique.lefevre@mio.osupytheas.fr, maurice.libes@osupytheas.fr, didier.mallarino@osupytheas.fr
Project:EMSO http://www.emso-fr.org/EMSO-France
Depth: 2436.0 m
Title:EMSO Ligure Ouest : Data MII capteur AQUADOPP
Date,Latitude,Longitude,X_East,Y_North,Z_Up,Amplitude_X,Amplitude_Y,Amplitude_Z,Batterie,SoundSpeed,Heading,Pitch,Roll,Pressure,TIS,Speed,Direction
, degrees North, degrees East, m.s-1, m.s-1,m.s-1, 1, 1, 1, Volt, m.s-1, degree, degree, degree, dbar, degree_C, m.s-1, degree
2020-04-14T00:04:03,42.805,6.029,-0.03,-0.081,-0.035,107.0,105.0,103.0,13.4,1505.2,326.9,-0.7,1.8,2470.387,13.3,0.086,200.3
2020-04-14T00:07:03,42.805,6.029,-0.048,-0.062,-0.014,106.0,106.0,103.0,13.4,1505.3,326.9,-0.7,1.9,2470.36,13.31,0.078,217.7
2020-04-14T00:10:03,42.805,6.029,-0.033,-0.067,0.003,108.0,106.0,104.0,13.4,1505.3,327.1,-0.7,1.8,2470.378,13.31,0.074,206.2
2020-04-14T00:13:03,42.805,6.029,-0.034,-0.055,-0.001,107.0,107.0,102.0,13.4,1505.3,325.9,-0.7,1.8,2470.364,13.32,0.064,211.7
2020-04-14T00:16:03,42.805,6.029,-0.036,-0.066,-0.022,107.0,106.0,104.0,13.4,1505.3,325.1,-0.7,1.8,2470.358,13.32,0.075,208.6
2020-04-14T00:19:03,42.805,6.029,-0.007,-0.064,-0.035,107.0,107.0,105.0,13.4,1505.3,324.9,-0.7,1.8,2470.383,13.32,0.064,186.2
2020-04-14T00:22:03,42.805,6.029,-0.016,-0.078,-0.006,107.0,107.0,104.0,13.4,1505.3,323.6,-0.7,1.8,2470.323,13.32,0.079,191.6
2020-04-14T00:25:03,42.805,6.029,-0.029,-0.078,-0.011,107.0,106.0,105.0,13.3,1505.3,327.3,-0.7,1.8,2470.364,13.32,0.083,200.4
2020-04-14T00:28:03,42.805,6.029,-0.019,-0.073,-0.018,108.0,107.0,104.0,13.4,1505.3,325.5,-0.7,1.9,2470.337,13.32,0.075,194.6
2020-04-14T00:31:03,42.805,6.029,-0.046,-0.096,-0.019,107.0,106.0,103.0,13.3,1505.3,327.4,-0.7,1.9,2470.339,13.32,0.106,205.6
2020-04-14T00:34:03,42.805,6.029,-0.023,-0.082,-0.029,107.0,107.0,103.0,13.4,1505.3,323.9,-0.7,1.8,2470.364,13.32,0.085,195.7
2020-04-14T00:37:03,42.805,6.029,-0.047,-0.075,-0.018,107.0,106.0,103.0,13.4,1505.3,326.4,-0.7,1.8,2470.373,13.32,0.088,212.1
2020-04-14T00:40:03,42.805,6.029,-0.045,-0.069,-0.001,107.0,107.0,104.0,13.3,1505.3,326.7,-0.7,1.9,2470.385,13.32,0.082,213.1
2020-04-14T00:43:03,42.805,6.029,-0.046,-0.083,-0.018,108.0,107.0,104.0,13.4,1505.3,323.0,-0.7,1.8,2470.357,13.32,0.094,209.0
2020-04-14T00:46:03,42.805,6.029,-0.028,-0.079,-0.022,108.0,106.0,104.0,13.4,1505.3,326.3,-0.7,1.8,2470.367,13.32,0.083,199.5
2020-04-14T00:49:03,42.805,6.029,-0.039,-0.085,-0.04,107.0,106.0,105.0,13.4,1505.3,326.9,-0.7,1.8,2470.357,13.32,0.093,204.6
2020-04-14T00:52:03,42.805,6.029,-0.046,-0.065,-0.027,108.0,107.0,103.0,13.3,1505.3,327.8,-0.7,1.8,2470.397,13.32,0.079,215.3
2020-04-14T00:55:03,42.805,6.029,-0.038,-0.094,-0.028,108.0,107.0,104.0,13.4,1505.3,326.3,-0.7,1.8,2470.348,13.32,0.101,202.0
2020-04-14T00:58:03,42.805,6.029,-0.03,-0.056,-0.035,107.0,107.0,104.0,13.4,1505.3,328.2,-0.7,1.9,2470.391,13.32,0.063,208.2
2020-04-14T01:04:03,42.805,6.029,-0.041,-0.075,-0.02,108.0,108.0,105.0,13.4,1505.2,324.1,-0.8,1.8,2470.404,13.3,0.085,208.7
2020-04-14T01:07:03,42.805,6.029,-0.05,-0.073,-0.012,108.0,106.0,103.0,13.3,1505.3,326.1,-0.7,1.8,2470.36,13.31,0.088,214.4
2020-04-14T01:10:03,42.805,6.029,-0.027,-0.054,-0.016,107.0,107.0,103.0,13.4,1505.3,328.6,-0.7,1.8,2470.371,13.31,0.06,206.6
2020-04-14T01:13:03,42.805,6.029,-0.043,-0.066,-0.015,107.0,106.0,103.0,13.4,1505.3,326.1,-0.8,1.9,2470.345,13.32,0.078,213.1
2020-04-14T01:16:03,42.805,6.029,-0.053,-0.051,-0.031,106.0,107.0,104.0,13.4,1505.3,326.4,-0.7,1.8,2470.377,13.32,0.073,226.1
2020-04-14T01:19:03,42.805,6.029,-0.05,-0.061,-0.054,107.0,107.0,104.0,13.4,1505.3,326.9,-0.7,1.9,2470.359,13.32,0.078,219.3
2020-04-14T01:22:03,42.805,6.029,-0.047,-0.034,-0.03,107.0,107.0,104.0,13.4,1505.3,327.0,-0.7,1.9,2470.395,13.32,0.058,234.1
2020-04-14T01:25:03,42.805,6.029,-0.047,-0.068,-0.069,108.0,107.0,104.0,13.4,1505.3,323.5,-0.7,1.9,2470.362,13.32,0.082,214.7
2020-04-14T01:28:03,42.805,6.029,-0.039,-0.065,-0.032,107.0,105.0,104.0,13.3,1505.3,326.5,-0.7,1.8,2470.331,13.32,0.075,211.0
2020-04-14T01:31:03,42.805,6.029,-0.032,-0.063,-0.05,108.0,108.0,104.0,13.4,1505.3,328.1,-0.7,1.9,2470.402,13.32,0.07,206.9
2020-04-14T01:34:03,42.805,6.029,-0.045,-0.061,0.004,107.0,106.0,104.0,13.4,1505.3,327.1,-0.7,1.8,2470.392,13.32,0.075,216.4
2020-04-14T01:37:03,42.805,6.029,-0.04,-0.065,-0.031,107.0,106.0,104.0,13.4,1505.3,323.4,-0.7,1.8,2470.354,13.32,0.076,211.6
2020-04-14T01:40:03,42.805,6.029,-0.026,-0.052,-0.031,107.0,108.0,102.0,13.4,1505.3,323.9,-0.7,1.8,2470.323,13.32,0.058,206.6
2020-04-14T01:43:03,42.805,6.029,-0.072,-0.053,-0.02,107.0,106.0,104.0,13.4,1505.3,328.0,-0.7,1.9,2470.334,13.32,0.089,233.6
2020-04-14T01:46:03,42.805,6.029,-0.041,-0.093,-0.022,107.0,106.0,104.0,13.3,1505.3,325.4,-0.7,1.8,2470.354,13.32,0.101,203.8
2020-04-14T01:49:03,42.805,6.029,-0.057,-0.063,-0.069,106.0,106.0,103.0,13.4,1505.3,326.5,-0.7,1.8,2470.363,13.32,0.084,222.1
2020-04-14T01:52:03,42.805,6.029,-0.017,-0.077,-0.021,108.0,108.0,104.0,13.3,1505.3,322.8,-0.7,1.8,2470.363,13.32,0.078,192.4
2020-04-14T01:55:03,42.805,6.029,-0.039,-0.042,-0.005,107.0,107.0,103.0,13.4,1505.3,323.9,-0.7,1.8,2470.326,13.32,0.057,222.9
2020-04-14T01:58:03,42.805,6.029,-0.029,-0.065,-0.02,109.0,107.0,104.0,13.4,1505.3,325.4,-0.7,1.8,2470.366,13.32,0.071,204.0
2020-04-14T02:04:03,42.805,6.029,-0.043,-0.081,-0.052,107.0,106.0,103.0,13.3,1505.2,325.7,-0.7,1.8,2470.353,13.3,0.091,208.0
2020-04-14T02:07:03,42.805,6.029,-0.033,-0.077,-0.014,108.0,106.0,104.0,13.4,1505.3,325.0,-0.7,1.9,2470.348,13.31,0.083,203.2
2020-04-14T02:10:03,42.805,6.029,-0.054,-0.058,-0.046,108.0,108.0,104.0,13.3,1505.3,324.6,-0.7,1.8,2470.319,13.31,0.079,223.0
2020-04-14T02:13:03,42.805,6.029,-0.035,-0.067,-0.025,108.0,107.0,104.0,13.4,1505.3,326.3,-0.7,1.9,2470.339,13.32,0.075,207.6
2020-04-14T02:16:03,42.805,6.029,-0.051,-0.067,-0.067,107.0,106.0,103.0,13.4,1505.3,324.2,-0.7,1.8,2470.354,13.32,0.084,217.3
2020-04-14T02:19:03,42.805,6.029,-0.03,-0.062,-0.039,108.0,107.0,104.0,13.4,1505.3,323.0,-0.7,1.8,2470.346,13.32,0.068,205.8
2020-04-14T02:22:03,42.805,6.029,-0.045,-0.063,-0.009,107.0,106.0,104.0,13.4,1505.3,327.1,-0.7,1.8,2470.302,13.32,0.077,215.5
2020-04-14T02:25:03,42.805,6.029,-0.046,-0.056,-0.017,107.0,107.0,104.0,13.3,1505.3,324.4,-0.7,1.8,2470.355,13.32,0.072,219.4
2020-04-14T02:28:03,42.805,6.029,-0.052,-0.059,-0.02,108.0,107.0,104.0,13.3,1505.3,326.2,-0.7,1.8,2470.321,13.32,0.078,221.4
2020-04-14T02:31:03,42.805,6.029,-0.025,-0.061,-0.035,107.0,107.0,105.0,13.4,1505.3,323.2,-0.7,1.8,2470.297,13.32,0.065,202.3
2020-04-14T02:34:03,42.805,6.029,-0.028,-0.068,-0.02,108.0,108.0,104.0,13.4,1505.3,328.3,-0.7,1.8,2470.317,13.32,0.073,202.4
2020-04-14T02:37:03,42.805,6.029,-0.027,-0.078,-0.019,107.0,107.0,105.0,13.4,1505.3,326.9,-0.7,1.9,2470.305,13.32,0.082,199.1
2020-04-14T02:40:03,42.805,6.029,-0.01,-0.063,-0.028,107.0,108.0,104.0,13.4,1505.3,324.5,-0.7,1.8,2470.295,13.32,0.063,189.0
2020-04-14T02:43:03,42.805,6.029,-0.06,-0.065,-0.024,107.0,107.0,103.0,13.3,1505.3,326.5,-0.7,1.8,2470.34,13.32,0.088,222.7
2020-04-14T02:46:03,42.805,6.029,-0.043,-0.074,-0.023,107.0,107.0,104.0,13.4,1505.3,326.2,-0.7,1.8,2470.315,13.32,0.085,210.2
2020-04-14T02:49:03,42.805,6.029,-0.051,-0.069,-0.038,107.0,106.0,104.0,13.3,1505.3,327.8,-0.7,1.8,2470.317,13.32,0.085,216.5
2020-04-14T02:52:03,42.805,6.029,-0.069,-0.065,-0.029,107.0,107.0,104.0,13.4,1505.3,324.2,-0.7,1.9,2470.322,13.32,0.094,226.7
2020-04-14T02:55:03,42.805,6.029,-0.061,-0.044,-0.045,108.0,106.0,105.0,13.4,1505.3,326.9,-0.7,1.8,2470.29,13.32,0.075,234.2
2020-04-14T02:58:03,42.805,6.029,-0.033,-0.045,-0.002,107.0,107.0,104.0,13.4,1505.3,327.2,-0.7,1.9,2470.319,13.32,0.055,216.3
2020-04-14T03:04:03,42.805,6.029,-0.032,-0.056,-0.036,109.0,108.0,104.0,13.4,1505.2,322.9,-0.7,1.8,2470.382,13.3,0.064,209.7
2020-04-14T03:07:03,42.805,6.029,-0.036,-0.049,-0.007,106.0,106.0,104.0,13.4,1505.3,326.3,-0.7,1.8,2470.339,13.31,0.06,216.3
2020-04-14T03:10:03,42.805,6.029,-0.032,-0.07,-0.02,107.0,107.0,105.0,13.3,1505.3,325.0,-0.7,1.8,2470.332,13.31,0.076,204.6
2020-04-14T03:13:03,42.805,6.029,-0.07,-0.06,-0.061,108.0,107.0,105.0,13.4,1505.3,325.5,-0.7,1.9,2470.329,13.32,0.092,229.4
2020-04-14T03:16:03,42.805,6.029,-0.041,-0.06,-0.014,107.0,107.0,104.0,13.3,1505.3,325.9,-0.7,1.8,2470.343,13.32,0.072,214.3
2020-04-14T03:19:03,42.805,6.029,-0.041,-0.042,-0.041,106.0,106.0,104.0,13.4,1505.3,327.6,-0.7,1.9,2470.316,13.32,0.058,224.3
2020-04-14T03:22:03,42.805,6.029,-0.048,-0.054,-0.009,108.0,106.0,104.0,13.3,1505.3,326.8,-0.7,1.8,2470.288,13.32,0.072,221.6
2020-04-14T03:25:03,42.805,6.029,-0.061,-0.073,-0.013,108.0,106.0,105.0,13.4,1505.3,324.9,-0.7,1.8,2470.301,13.32,0.095,219.9
2020-04-14T03:28:03,42.805,6.029,-0.052,-0.047,-0.069,107.0,107.0,103.0,13.4,1505.3,326.2,-0.7,1.9,2470.329,13.32,0.07,227.9
2020-04-14T03:31:03,42.805,6.029,-0.034,-0.061,-0.052,108.0,108.0,104.0,13.4,1505.3,325.1,-0.7,1.8,2470.284,13.32,0.069,209.1
2020-04-14T03:34:03,42.805,6.029,-0.047,-0.054,-0.043,107.0,106.0,103.0,13.4,1505.3,326.4,-0.7,1.8,2470.307,13.32,0.071,221.0
2020-04-14T03:37:03,42.805,6.029,-0.013,-0.026,-0.02,106.0,106.0,104.0,13.4,1505.3,323.6,-0.7,1.8,2470.282,13.32,0.029,206.6
2020-04-14T03:40:03,42.805,6.029,-0.038,-0.065,0.0,106.0,107.0,105.0,13.3,1505.3,325.1,-0.7,1.8,2470.275,13.32,0.075,210.3
2020-04-14T03:43:03,42.805,6.029,-0.034,-0.048,-0.045,107.0,107.0,103.0,13.4,1505.3,328.0,-0.7,1.8,2470.325,13.32,0.058,215.3
2020-04-14T03:46:03,42.805,6.029,-0.032,-0.047,-0.025,107.0,107.0,104.0,13.3,1505.3,324.5,-0.7,1.8,2470.299,13.32,0.056,214.2
2020-04-14T03:49:03,42.805,6.029,-0.04,-0.05,-0.039,108.0,108.0,104.0,13.4,1505.3,324.6,-0.7,1.8,2470.319,13.32,0.064,218.7
2020-04-14T03:52:03,42.805,6.029,-0.039,-0.05,-0.01,107.0,107.0,104.0,13.4,1505.3,327.7,-0.7,1.8,2470.266,13.32,0.063,218.0
2020-04-14T03:55:03,42.805,6.029,-0.068,-0.057,-0.033,108.0,107.0,104.0,13.4,1505.3,324.9,-0.7,1.9,2470.315,13.32,0.088,230.0
2020-04-14T03:58:03,42.805,6.029,-0.042,-0.061,-0.028,108.0,107.0,103.0,13.4,1505.3,323.2,-0.7,1.8,2470.289,13.32,0.074,214.6
2020-04-14T04:04:03,42.805,6.029,-0.049,-0.074,-0.049,106.0,106.0,104.0,13.4,1505.2,325.9,-0.8,1.8,2470.29,13.3,0.088,213.5
2020-04-14T04:07:03,42.805,6.029,-0.055,-0.039,-0.047,108.0,107.0,103.0,13.4,1505.3,326.2,-0.7,1.9,2470.321,13.31,0.067,234.7
2020-04-14T04:10:03,42.805,6.029,-0.028,-0.064,-0.048,106.0,108.0,103.0,13.4,1505.3,326.1,-0.7,1.9,2470.317,13.31,0.069,203.6
2020-04-14T04:13:03,42.805,6.029,-0.057,-0.072,-0.02,107.0,107.0,104.0,13.4,1505.3,326.7,-0.7,1.8,2470.279,13.32,0.091,218.4
2020-04-14T04:16:03,42.805,6.029,-0.044,-0.044,-0.031,107.0,106.0,103.0,13.4,1505.3,326.6,-0.6,1.8,2470.285,13.32,0.062,225.0
2020-04-14T04:19:03,42.805,6.029,-0.048,-0.069,-0.042,108.0,107.0,105.0,13.4,1505.3,324.6,-0.7,1.8,2470.297,13.32,0.084,214.8
2020-04-14T04:22:03,42.805,6.029,-0.037,-0.063,-0.041,108.0,107.0,104.0,13.4,1505.3,323.4,-0.7,1.8,2470.307,13.32,0.073,210.4
2020-04-14T04:25:03,42.805,6.029,-0.072,-0.078,-0.024,106.0,107.0,104.0,13.3,1505.3,325.0,-0.7,1.8,2470.283,13.32,0.106,222.7
2020-04-14T04:28:03,42.805,6.029,-0.06,-0.068,-0.026,106.0,107.0,102.0,13.4,1505.3,323.7,-0.7,1.8,2470.269,13.32,0.09,221.4
2020-04-14T04:31:03,42.805,6.029,-0.026,-0.051,-0.038,107.0,107.0,104.0,13.3,1505.3,325.3,-0.7,1.9,2470.287,13.32,0.057,207.0
2020-04-14T04:34:03,42.805,6.029,-0.045,-0.04,0.008,108.0,107.0,104.0,13.4,1505.3,327.9,-0.7,1.8,2470.263,13.32,0.06,228.4
2020-04-14T04:37:03,42.805,6.029,-0.057,-0.032,-0.045,107.0,107.0,104.0,13.3,1505.3,326.7,-0.7,1.8,2470.262,13.32,0.065,240.7
2020-04-14T04:40:03,42.805,6.029,-0.046,-0.05,-0.039,107.0,108.0,104.0,13.3,1505.3,324.9,-0.7,1.8,2470.297,13.32,0.067,222.6
2020-04-14T04:43:03,42.805,6.029,-0.026,-0.054,-0.001,108.0,108.0,104.0,13.4,1505.3,325.9,-0.7,1.8,2470.283,13.32,0.059,205.7
2020-04-14T04:46:03,42.805,6.029,-0.042,-0.037,-0.01,107.0,107.0,104.0,13.3,1505.3,326.5,-0.7,1.9,2470.301,13.32,0.055,228.6
2020-04-14T04:49:03,42.805,6.029,-0.031,-0.036,-0.013,108.0,107.0,104.0,13.3,1505.3,325.2,-0.7,1.9,2470.274,13.32,0.047,220.7
2020-04-14T04:52:03,42.805,6.029,-0.04,-0.044,-0.016,108.0,108.0,104.0,13.3,1505.3,326.9,-0.7,1.9,2470.272,13.32,0.059,222.3
2020-04-14T04:55:03,42.805,6.029,-0.052,-0.057,-0.018,107.0,107.0,105.0,13.4,1505.3,324.9,-0.7,1.8,2470.279,13.32,0.077,222.4
2020-04-14T04:58:03,42.805,6.029,-0.028,-0.056,-0.032,107.0,107.0,104.0,13.4,1505.3,326.6,-0.7,1.8,2470.236,13.32,0.062,206.6
2020-04-14T05:04:03,42.805,6.029,-0.041,-0.062,-0.029,109.0,107.0,105.0,13.4,1505.2,326.5,-0.7,1.8,2470.29,13.3,0.074,213.5
2020-04-14T05:07:03,42.805,6.029,-0.037,-0.044,-0.021,107.0,107.0,104.0,13.3,1505.3,325.3,-0.7,1.8,2470.315,13.31,0.057,220.1
2020-04-14T05:10:03,42.805,6.029,-0.052,-0.041,-0.022,108.0,107.0,104.0,13.4,1505.3,325.9,-0.7,1.8,2470.287,13.31,0.066,231.7
2020-04-14T05:13:03,42.805,6.029,-0.049,-0.035,-0.023,107.0,107.0,105.0,13.4,1505.3,327.7,-0.7,1.8,2470.296,13.32,0.06,234.5
2020-04-14T05:16:03,42.805,6.029,-0.037,-0.048,-0.01,107.0,108.0,105.0,13.4,1505.3,325.6,-0.7,1.8,2470.312,13.32,0.06,217.6
2020-04-14T05:19:03,42.805,6.029,-0.081,-0.034,-0.015,108.0,108.0,105.0,13.4,1505.3,327.8,-0.7,1.8,2470.294,13.32,0.087,247.2
2020-04-14T05:22:03,42.805,6.029,-0.057,-0.048,-0.024,108.0,107.0,104.0,13.3,1505.3,326.7,-0.7,1.8,2470.246,13.32,0.074,229.9
2020-04-14T05:25:03,42.805,6.029,-0.05,-0.019,-0.043,108.0,107.0,105.0,13.4,1505.3,327.0,-0.7,1.8,2470.276,13.32,0.053,249.2
2020-04-14T05:28:03,42.805,6.029,-0.049,-0.047,-0.037,108.0,107.0,105.0,13.4,1505.3,326.4,-0.7,1.8,2470.281,13.32,0.067,226.2
2020-04-14T05:31:03,42.805,6.029,-0.037,-0.057,-0.019,108.0,106.0,106.0,13.4,1505.3,323.0,-0.7,1.8,2470.26,13.32,0.067,213.0
2020-04-14T05:34:03,42.805,6.029,-0.051,-0.03,-0.016,107.0,106.0,103.0,13.3,1505.3,326.9,-0.7,1.8,2470.238,13.32,0.059,239.5
2020-04-14T05:37:03,42.805,6.029,-0.06,-0.044,-0.071,107.0,107.0,104.0,13.3,1505.3,326.7,-0.7,1.8,2470.251,13.32,0.074,233.7
2020-04-14T05:40:03,42.805,6.029,-0.048,-0.049,-0.029,108.0,108.0,104.0,13.4,1505.3,325.0,-0.7,1.8,2470.272,13.32,0.068,224.4
2020-04-14T05:43:03,42.805,6.029,-0.063,-0.045,-0.024,107.0,107.0,105.0,13.4,1505.3,328.5,-0.7,1.9,2470.222,13.32,0.077,234.5
2020-04-14T05:46:03,42.805,6.029,-0.043,-0.041,-0.046,107.0,107.0,105.0,13.4,1505.3,327.8,-0.7,1.8,2470.226,13.32,0.059,226.4
2020-04-14T05:49:03,42.805,6.029,-0.027,-0.046,-0.012,108.0,106.0,104.0,13.4,1505.3,327.5,-0.7,1.8,2470.289,13.32,0.053,210.4
2020-04-14T05:52:03,42.805,6.029,-0.065,-0.025,-0.041,108.0,108.0,103.0,13.4,1505.3,324.1,-0.7,1.8,2470.27,13.32,0.069,249.0
2020-04-14T05:55:03,42.805,6.029,-0.049,-0.047,-0.013,107.0,107.0,104.0,13.3,1505.3,327.0,-0.7,1.8,2470.245,13.32,0.067,226.2
2020-04-14T05:58:03,42.805,6.029,-0.037,-0.038,-0.062,107.0,107.0,104.0,13.4,1505.3,323.5,-0.7,1.9,2470.205,13.32,0.053,224.2
2020-04-14T06:04:03,42.805,6.029,-0.044,-0.038,-0.046,108.0,107.0,104.0,13.4,1505.2,326.0,-0.7,1.8,2470.253,13.3,0.058,229.2
2020-04-14T06:07:03,42.805,6.029,-0.026,-0.06,-0.018,107.0,107.0,104.0,13.4,1505.3,324.5,-0.7,1.9,2470.236,13.31,0.065,203.4
2020-04-14T06:10:03,42.805,6.029,-0.07,-0.058,-0.033,108.0,107.0,104.0,13.4,1505.3,325.4,-0.7,1.8,2470.261,13.31,0.09,230.4
2020-04-14T06:13:03,42.805,6.029,-0.047,-0.051,-0.034,107.0,107.0,104.0,13.4,1505.3,326.2,-0.7,1.8,2470.236,13.32,0.069,222.7
2020-04-14T06:16:03,42.805,6.029,-0.054,-0.049,-0.016,107.0,107.0,104.0,13.3,1505.3,328.1,-0.7,1.8,2470.265,13.32,0.072,227.8
2020-04-14T06:19:03,42.805,6.029,-0.053,-0.034,-0.026,108.0,107.0,103.0,13.3,1505.3,328.2,-0.7,1.8,2470.23,13.32,0.062,237.3
2020-04-14T06:22:03,42.805,6.029,-0.051,-0.048,-0.033,108.0,107.0,105.0,13.4,1505.3,324.1,-0.7,1.8,2470.268,13.32,0.07,226.7
2020-04-14T06:25:03,42.805,6.029,-0.034,-0.05,-0.043,106.0,108.0,106.0,13.3,1505.3,325.6,-0.7,1.8,2470.246,13.32,0.06,214.2
2020-04-14T06:28:03,42.805,6.029,-0.038,-0.04,-0.034,108.0,107.0,104.0,13.3,1505.3,323.1,-0.7,1.8,2470.247,13.32,0.055,223.5
2020-04-14T06:31:03,42.805,6.029,-0.051,-0.053,-0.054,108.0,107.0,105.0,13.4,1505.3,325.0,-0.7,1.8,2470.205,13.32,0.073,223.9
2020-04-14T06:34:03,42.805,6.029,-0.045,-0.034,-0.04,108.0,108.0,104.0,13.3,1505.3,328.4,-0.7,1.8,2470.254,13.32,0.056,232.9
2020-04-14T06:37:03,42.805,6.029,-0.039,-0.043,-0.027,108.0,107.0,103.0,13.3,1505.3,324.7,-0.7,1.8,2470.22,13.32,0.058,222.2
2020-04-14T06:40:03,42.805,6.029,-0.044,-0.044,-0.031,107.0,107.0,105.0,13.4,1505.3,326.2,-0.7,1.8,2470.217,13.32,0.062,225.0
2020-04-14T06:43:03,42.805,6.029,-0.051,-0.058,-0.028,107.0,106.0,105.0,13.4,1505.3,323.7,-0.7,1.8,2470.253,13.32,0.077,221.3
2020-04-14T06:46:03,42.805,6.029,-0.067,-0.059,-0.033,107.0,107.0,104.0,13.3,1505.3,326.5,-0.7,1.8,2470.212,13.32,0.089,228.6
2020-04-14T06:52:03,42.805,6.029,-0.03,-0.035,0.0,108.0,106.0,103.0,13.4,1505.2,324.1,-0.7,1.8,2470.275,13.3,0.046,220.6
2020-04-14T06:55:03,42.805,6.029,-0.039,-0.04,-0.015,108.0,106.0,104.0,13.3,1505.3,326.9,-0.7,1.8,2470.221,13.31,0.055,224.3
2020-04-14T06:58:03,42.805,6.029,-0.064,-0.031,-0.008,108.0,107.0,104.0,13.4,1505.3,326.7,-0.7,1.9,2470.24,13.31,0.071,244.2
2020-04-14T07:04:03,42.805,6.029,-0.036,-0.039,-0.039,107.0,107.0,104.0,13.4,1505.2,323.6,-0.7,1.8,2470.275,13.3,0.053,222.7
2020-04-14T07:07:03,42.805,6.029,-0.049,-0.043,-0.019,107.0,107.0,104.0,13.4,1505.3,326.9,-0.8,1.8,2470.216,13.31,0.065,228.7
2020-04-14T07:10:03,42.805,6.029,-0.064,-0.045,-0.029,107.0,106.0,103.0,13.4,1505.3,326.8,-0.7,1.8,2470.265,13.31,0.078,234.9
2020-04-14T07:13:03,42.805,6.029,-0.037,-0.057,-0.023,109.0,107.0,104.0,13.4,1505.3,323.5,-0.7,1.8,2470.241,13.32,0.067,213.0
2020-04-14T07:16:03,42.805,6.029,-0.045,-0.035,-0.028,108.0,107.0,104.0,13.4,1505.3,325.3,-0.7,1.8,2470.228,13.32,0.057,232.1
2020-04-14T07:19:03,42.805,6.029,-0.034,-0.036,-0.003,107.0,108.0,103.0,13.4,1505.3,323.8,-0.7,1.8,2470.275,13.32,0.049,223.4
2020-04-14T07:22:03,42.805,6.029,-0.067,-0.035,-0.032,108.0,108.0,105.0,13.3,1505.3,327.9,-0.7,1.8,2470.253,13.32,0.075,242.4
2020-04-14T07:25:03,42.805,6.029,-0.048,-0.031,-0.005,108.0,107.0,105.0,13.4,1505.3,327.1,-0.7,1.8,2470.224,13.32,0.057,237.1
2020-04-14T07:28:03,42.805,6.029,-0.06,-0.024,-0.029,107.0,107.0,105.0,13.4,1505.3,328.6,-0.7,1.8,2470.261,13.32,0.064,248.2
2020-04-14T07:31:03,42.805,6.029,-0.049,-0.046,-0.019,107.0,108.0,104.0,13.4,1505.3,326.9,-0.7,1.8,2470.236,13.32,0.067,226.8
2020-04-14T07:34:03,42.805,6.029,-0.059,-0.031,-0.042,108.0,107.0,104.0,13.4,1505.3,328.0,-0.7,1.8,2470.23,13.32,0.066,242.3
2020-04-14T07:37:03,42.805,6.029,-0.052,-0.067,-0.048,107.0,106.0,104.0,13.4,1505.3,326.4,-0.7,1.8,2470.284,13.32,0.084,217.8
2020-04-14T07:43:03,42.805,6.029,-0.03,-0.031,0.016,108.0,106.0,104.0,13.4,1505.2,324.8,-0.8,1.8,2470.248,13.3,0.043,224.1
2020-04-14T07:46:03,42.805,6.029,-0.061,-0.043,-0.015,108.0,107.0,104.0,13.4,1505.3,323.9,-0.7,1.8,2470.222,13.31,0.074,234.8
2020-04-14T07:49:03,42.805,6.029,-0.062,-0.036,-0.014,107.0,108.0,104.0,13.4,1505.3,327.6,-0.7,1.8,2470.25,13.31,0.071,239.9
2020-04-14T07:52:03,42.805,6.029,-0.05,-0.052,-0.048,107.0,107.0,104.0,13.3,1505.3,323.1,-0.7,1.8,2470.251,13.32,0.072,223.9
2020-04-14T07:55:03,42.805,6.029,-0.076,-0.02,-0.018,107.0,107.0,104.0,13.4,1505.3,326.4,-0.8,1.8,2470.219,13.32,0.078,255.3
2020-04-14T07:58:03,42.805,6.029,-0.055,-0.035,-0.034,108.0,107.0,105.0,13.3,1505.3,326.4,-0.7,1.8,2470.231,13.32,0.065,237.5
2020-04-14T08:04:03,42.805,6.029,-0.024,-0.026,0.013,109.0,107.0,105.0,13.4,1505.2,325.4,-0.8,1.8,2470.228,13.3,0.035,222.7
2020-04-14T08:07:03,42.805,6.029,-0.052,-0.035,-0.004,108.0,107.0,104.0,13.3,1505.3,325.7,-0.7,1.8,2470.243,13.31,0.062,236.1
2020-04-14T08:10:03,42.805,6.029,-0.072,-0.029,-0.043,106.0,108.0,105.0,13.4,1505.3,324.5,-0.7,1.8,2470.222,13.31,0.077,248.1
2020-04-14T08:13:03,42.805,6.029,-0.063,-0.025,-0.019,106.0,107.0,104.0,13.4,1505.3,326.5,-0.7,1.9,2470.276,13.32,0.067,248.4
2020-04-14T08:16:03,42.805,6.029,-0.042,-0.02,-0.04,107.0,108.0,104.0,13.4,1505.3,325.9,-0.7,1.8,2470.264,13.32,0.046,244.5
2020-04-14T08:19:03,42.805,6.029,-0.073,-0.056,-0.045,107.0,107.0,104.0,13.4,1505.3,326.8,-0.7,1.8,2470.221,13.32,0.092,232.5
2020-04-14T08:22:03,42.805,6.029,-0.059,0.002,-0.031,106.0,107.0,104.0,13.4,1505.3,326.9,-0.7,1.8,2470.219,13.32,0.059,271.9
2020-04-14T08:25:03,42.805,6.029,-0.044,-0.029,-0.017,108.0,108.0,103.0,13.3,1505.3,327.1,-0.7,1.8,2470.232,13.32,0.052,236.6
2020-04-14T08:28:03,42.805,6.029,-0.033,-0.057,-0.029,109.0,107.0,104.0,13.4,1505.3,326.4,-0.7,1.8,2470.207,13.32,0.065,210.1
2020-04-14T08:31:03,42.805,6.029,-0.037,-0.024,0.0,108.0,108.0,105.0,13.4,1505.3,324.0,-0.7,1.8,2470.232,13.32,0.044,237.0
2020-04-14T08:34:03,42.805,6.029,-0.054,-0.033,0.001,107.0,108.0,105.0,13.3,1505.3,327.2,-0.7,1.8,2470.272,13.32,0.063,238.6
2020-04-14T08:37:03,42.805,6.029,-0.063,-0.019,-0.03,108.0,108.0,104.0,13.3,1505.3,323.0,-0.7,1.8,2470.228,13.32,0.065,253.2
2020-04-14T08:40:03,42.805,6.029,-0.042,-0.044,-0.032,108.0,108.0,104.0,13.4,1505.3,326.8,-0.7,1.8,2470.212,13.32,0.06,223.7
2020-04-14T08:43:03,42.805,6.029,-0.058,-0.031,-0.033,108.0,108.0,104.0,13.4,1505.3,327.0,-0.7,1.8,2470.233,13.32,0.065,241.9
2020-04-14T08:46:03,42.805,6.029,-0.075,-0.024,-0.01,107.0,107.0,103.0,13.4,1505.3,327.2,-0.7,1.8,2470.249,13.32,0.078,252.3
2020-04-14T08:49:03,42.805,6.029,-0.072,-0.035,-0.02,107.0,106.0,105.0,13.3,1505.3,326.3,-0.7,1.8,2470.248,13.32,0.08,244.1
2020-04-14T08:52:03,42.805,6.029,-0.059,-0.018,-0.007,109.0,108.0,105.0,13.3,1505.3,324.0,-0.7,1.8,2470.213,13.32,0.061,253.0
2020-04-14T08:55:03,42.805,6.029,-0.051,-0.051,-0.035,107.0,108.0,104.0,13.4,1505.3,324.6,-0.7,1.8,2470.212,13.32,0.072,225.0
2020-04-14T08:58:03,42.805,6.029,-0.068,-0.043,-0.051,107.0,108.0,104.0,13.4,1505.3,327.0,-0.7,1.8,2470.217,13.32,0.08,237.7
2020-04-14T09:04:03,42.805,6.029,-0.077,-0.017,-0.043,108.0,108.0,104.0,13.4,1505.2,326.6,-0.7,1.8,2470.23,13.3,0.078,257.6
2020-04-14T09:07:03,42.805,6.029,-0.04,-0.032,-0.026,107.0,107.0,103.0,13.4,1505.3,326.3,-0.7,1.8,2470.222,13.31,0.051,231.3
2020-04-14T09:10:03,42.805,6.029,-0.06,-0.017,0.014,109.0,107.0,104.0,13.4,1505.3,323.9,-0.7,1.8,2470.252,13.31,0.062,254.2
2020-04-14T09:13:03,42.805,6.029,-0.084,-0.034,-0.045,108.0,108.0,105.0,13.3,1505.3,323.6,-0.7,1.8,2470.248,13.32,0.09,248.0
2020-04-14T09:16:03,42.805,6.029,-0.06,-0.044,-0.035,108.0,107.0,104.0,13.3,1505.3,327.6,-0.7,1.8,2470.279,13.32,0.074,233.7
2020-04-14T09:19:03,42.805,6.029,-0.04,-0.009,-0.018,108.0,108.0,104.0,13.4,1505.3,325.1,-0.7,1.9,2470.258,13.32,0.041,257.3
2020-04-14T09:22:03,42.805,6.029,-0.08,-0.04,-0.009,107.0,109.0,104.0,13.4,1505.3,326.2,-0.7,1.9,2470.251,13.32,0.089,243.4
2020-04-14T09:25:03,42.805,6.029,-0.077,-0.024,-0.01,107.0,107.0,105.0,13.3,1505.3,324.2,-0.7,1.8,2470.218,13.32,0.08,252.7
2020-04-14T09:28:03,42.805,6.029,-0.059,-0.026,-0.044,107.0,107.0,104.0,13.4,1505.3,324.3,-0.7,1.8,2470.257,13.32,0.064,246.2
2020-04-14T09:31:03,42.805,6.029,-0.05,-0.02,-0.033,107.0,108.0,104.0,13.4,1505.3,325.4,-0.7,1.8,2470.28,13.32,0.053,248.2
2020-04-14T09:34:03,42.805,6.029,-0.055,-0.048,-0.029,109.0,108.0,104.0,13.4,1505.3,326.0,-0.7,1.8,2470.289,13.32,0.072,228.9
2020-04-14T09:37:03,42.805,6.029,-0.037,-0.028,0.0,109.0,107.0,104.0,13.4,1505.3,325.3,-0.7,1.9,2470.218,13.32,0.046,232.9
2020-04-14T09:40:03,42.805,6.029,-0.067,-0.051,-0.023,108.0,107.0,104.0,13.4,1505.3,324.8,-0.7,1.8,2470.254,13.32,0.084,232.7
2020-04-14T09:43:03,42.805,6.029,-0.058,-0.012,-0.021,109.0,108.0,104.0,13.4,1505.3,327.3,-0.7,1.9,2470.263,13.32,0.059,258.3
2020-04-14T09:46:03,42.805,6.029,-0.081,-0.019,-0.001,106.0,107.0,104.0,13.4,1505.3,326.5,-0.7,1.9,2470.253,13.32,0.083,256.8
2020-04-14T09:49:03,42.805,6.029,-0.057,-0.026,-0.025,108.0,108.0,104.0,13.4,1505.3,326.5,-0.7,1.9,2470.244,13.32,0.062,245.5
2020-04-14T09:52:03,42.805,6.029,-0.055,-0.042,-0.043,108.0,107.0,104.0,13.4,1505.3,323.4,-0.7,1.8,2470.236,13.32,0.069,232.6
2020-04-14T09:55:03,42.805,6.029,-0.063,-0.032,-0.028,108.0,108.0,105.0,13.4,1505.3,325.4,-0.7,1.8,2470.241,13.32,0.07,243.1